K5AGY Weather Reports


Display with metric or nautical units.
time (UTC)temp
F
wind
direction
speed
MPH
gust
MPH
rain 1hr
in
rain 24hr
in
rain mn
in
humidity
%
barometer
mb
20260506224550 76 337 12.0 20.0 0.00 0.00 0.00 68 1008.7
20260506223037 78 7 11.0 18.0 0.00 0.00 0.00 67 1008.3
20260506221603 79 344 12.0 23.0 0.00 0.00 0.00 68 1008.1
20260506220036 81 4 11.0 18.0 0.00 0.00 0.00 68 1008.1
20260506214510 82 335 11.0 17.0 0.00 0.00 0.00 68 1008.1
20260506213101 84 335 5.0 9.0 0.00 0.00 0.00 67 1008.0
20260506211516 85 340 4.0 9.0 0.00 0.00 0.00 67 1007.9
20260506210101 86 321 4.0 7.0 0.00 0.00 0.00 66 1008.0
20260506204531 87 27 0.0 3.0 0.00 0.00 0.00 62 1008.0
20260506203006 88 75 2.0 5.0 0.00 0.00 0.00 61 1007.9
20260506201555 88 138 2.0 5.0 0.00 0.00 0.00 62 1008.0
20260506200017 89 79 1.0 3.0 0.00 0.00 0.00 60 1008.3
20260506194557 87 138 2.0 5.0 0.00 0.00 0.00 62 1008.4
20260506193022 88 147 3.0 7.0 0.00 0.00 0.00 63 1008.4
20260506191550 86 148 2.0 6.0 0.00 0.00 0.00 65 1008.6
20260506190022 86 51 2.0 5.0 0.00 0.00 0.00 66 1008.9
20260506184556 85 121 3.0 8.0 0.00 0.00 0.00 67 1008.9
20260506183021 83 60 2.0 6.0 0.00 0.00 0.00 69 1009.2
20260506181544 83 71 0.0 1.0 0.00 0.00 0.00 73 1009.4
20260506180019 83 77 1.0 5.0 0.00 0.00 0.00 72 1009.6
20260506174552 82 89 0.0 4.0 0.00 0.00 0.00 74 1009.7
20260506173016 81 100 2.0 6.0 0.00 0.00 0.00 73 1009.8
20260506171553 81 102 1.0 3.0 0.00 0.00 0.00 74 1010.0
20260506170023 81 39 1.0 5.0 0.00 0.00 0.00 75 1010.3
20260506164601 81 88 0.0 3.0 0.00 0.00 0.00 75 1010.5
20260506163028 80 101 0.0 5.0 0.00 0.00 0.00 76 1010.4
20260506161601 80 111 2.0 4.0 0.00 0.00 0.00 76 1010.2
20260506160028 80 77 1.0 5.0 0.00 0.00 0.00 78 1009.8
20260506154554 79 110 5.0 8.0 0.00 0.00 0.00 78 1009.3
20260506153028 79 82 2.0 5.0 0.00 0.00 0.00 78 1009.2
20260506151502 79 80 3.0 5.0 0.00 0.00 0.00 78 1009.3
20260506150028 79 110 5.0 7.0 0.00 0.00 0.00 78 1009.1
20260506144608 78 96 2.0 6.0 0.00 0.00 0.00 80 1009.0
20260506143033 77 139 1.0 5.0 0.00 0.00 0.00 81 1008.8
20260506141557 77 122 2.0 9.0 0.00 0.00 0.00 81 1008.6
20260506140025 76 111 4.0 9.0 0.00 0.00 0.00 83 1008.3
20260506134559 76 128 4.0 8.0 0.00 0.00 0.00 83 1008.4
20260506133037 76 84 4.0 7.0 0.00 0.00 0.00 84 1008.4
20260506131512 75 81 3.0 7.0 0.00 0.00 0.00 85 1008.4
20260506130058 75 105 2.0 5.0 0.00 0.00 0.00 86 1008.4
20260506124526 74 109 2.0 5.0 0.00 0.00 0.00 86 1008.3
20260506123003 74 104 1.0 3.0 0.00 0.00 0.00 86 1008.2
20260506121548 74 111 1.0 3.0 0.00 0.00 0.00 86 1008.2
20260506120025 74 103 0.0 2.0 0.00 0.00 0.00 86 1008.1
20260506114556 74 135 0.0 3.0 0.00 0.00 0.00 85 1008.0
20260506113035 74 132 1.0 7.0 0.00 0.00 0.00 85 1007.9
20260506111510 74 123 4.0 7.0 0.00 0.00 0.00 85 1007.7
20260506110047 74 118 2.0 4.0 0.00 0.00 0.00 85 1007.8
20260506104523 74 122 0.0 5.0 0.00 0.00 0.00 85 1007.7
20260506103129 74 143 1.0 6.0 0.00 0.00 0.00 86 1007.6
20260506101538 74 175 0.0 3.0 0.00 0.00 0.00 85 1007.5
20260506100013 74 152 1.0 4.0 0.00 0.00 0.00 85 1007.5
20260506094552 73 174 1.0 4.0 0.00 0.00 0.00 85 1007.4
20260506093025 73 162 0.0 4.0 0.00 0.00 0.00 85 1007.5
20260506091502 74 167 1.0 4.0 0.00 0.00 0.00 85 1007.5
20260506090047 74 144 2.0 4.0 0.00 0.00 0.00 85 1007.4
20260506084517 74 184 1.0 3.0 0.00 0.00 0.00 85 1007.3
20260506083054 74 153 1.0 6.0 0.00 0.00 0.00 85 1007.3
20260506081531 74 162 1.0 4.0 0.00 0.00 0.00 84 1007.1
20260506073001 74 180 1.0 6.0 0.00 0.00 0.00 83 1007.8
20260506071530 75 106 3.0 8.0 0.00 0.00 0.00 83 1008.0
20260506061558 75 117 4.0 10.0 0.00 0.00 0.00 83 1008.1
20260506044555 76 169 4.0 9.0 0.00 0.00 0.00 81 1008.3
20260506043039 76 153 4.0 7.0 0.00 0.00 0.00 81 1008.3
20260506041509 76 115 3.0 8.0 0.00 0.00 0.00 81 1008.1
20260506040047 76 129 3.0 6.0 0.00 0.00 0.00 81 1008.2
20260506034527 76 121 3.0 7.0 0.00 0.00 0.00 81 1008.2
20260506033100 76 140 5.0 9.0 0.00 0.00 0.00 81 1007.9
20260506031546 76 140 4.0 7.0 0.00 0.00 0.00 80 1007.7
20260506030018 76 123 2.0 8.0 0.00 0.00 0.00 80 1007.6
20260506024558 77 95 3.0 8.0 0.00 0.00 0.00 80 1007.1
20260506023030 77 118 4.0 6.0 0.00 0.00 0.00 79 1007.0
20260506021508 77 118 2.0 7.0 0.00 0.00 0.00 79 1006.8
20260506020046 77 113 3.0 7.0 0.00 0.00 0.00 78 1006.6
20260506014525 78 118 2.0 9.0 0.00 0.00 0.00 78 1006.5
20260506013107 78 124 3.0 10.0 0.00 0.00 0.00 76 1006.1
20260506011539 79 129 5.0 12.0 0.00 0.00 0.00 75 1005.9
20260506010013 79 127 5.0 13.0 0.00 0.00 0.00 74 1005.7
20260506004551 80 144 5.0 12.0 0.00 0.00 0.00 73 1005.6
20260506003027 80 151 6.0 12.0 0.00 0.00 0.00 72 1005.5
20260506001504 81 121 4.0 8.0 0.00 0.00 0.00 72 1005.5
20260506000042 81 135 4.0 10.0 0.00 0.00 0.00 71 1005.2
20260505234504 82 108 7.0 15.0 0.00 0.00 0.00 70 1005.1
20260505233038 82 125 7.0 15.0 0.00 0.00 0.00 69 1005.0
20260505231510 84 124 7.0 16.0 0.00 0.00 0.00 69 1005.0
20260505230052 84 104 5.0 14.0 0.00 0.00 0.00 67 1004.9